CFG9HV LEJR-EDDL

Flight info

Callsign CFG9HV
Flight time N/A
Altitude 36000
Route HIJ M30 PARKA N858 DGO L176 LUSEM DCT LULUT DCT ADABI DCT BOKNO DCT DIBES DCT VIQAQ DCT TSU DCT OQQAL DCT RANUX/N0444F370 DCT VALEK DCT LUTAX DCT DIK/N0397F230 N853 ARCKY T853 NVO T857 BIKMU BIKMU1A
Aircraft A320/M-SDE3FGHIJ1LORVWXYZ/LB1

Departure

Time 2026-04-30 14:36
Airport Jerez Airport (LEJR)

Arrival

Time N/A
Airport Düsseldorf Airport (EDDL)
Time Latitude Longitude Altitude Speed Heading
2026-04-30 14:01 36.74886 -6.06337 91 ft 0 kts 292°
2026-04-30 14:26 36.74883 -6.06328 90 ft 4 kts 291°
2026-04-30 14:26 36.74873 -6.06297 91 ft 4 kts 300°
2026-04-30 14:26 36.74838 -6.06270 89 ft 0 kts 22°
2026-04-30 14:30 36.74962 -6.06185 91 ft 8 kts 69°
2026-04-30 14:31 36.74935 -6.06073 94 ft 7 kts 111°
2026-04-30 14:31 36.75033 -6.05953 94 ft 13 kts 21°
2026-04-30 14:31 36.75112 -6.05915 95 ft 11 kts 21°
2026-04-30 14:32 36.75223 -6.05859 96 ft 6 kts 24°
2026-04-30 14:32 36.75268 -6.05837 98 ft 11 kts 21°
2026-04-30 14:32 36.75356 -6.05794 95 ft 16 kts 21°
2026-04-30 14:33 36.75449 -6.05746 92 ft 9 kts 30°
2026-04-30 14:33 36.75461 -6.05679 93 ft 0 kts 108°
2026-04-30 14:33 36.75453 -6.05650 94 ft 8 kts 110°
2026-04-30 14:34 36.75420 -6.05569 96 ft 10 kts 138°
2026-04-30 14:34 36.75357 -6.05577 93 ft 9 kts 199°
2026-04-30 14:34 36.75319 -6.05595 94 ft 2 kts 201°
2026-04-30 14:34 36.75318 -6.05595 94 ft 0 kts 201°
2026-04-30 14:35 36.75279 -6.05614 95 ft 32 kts 201°
2026-04-30 14:35 36.74568 -6.05960 86 ft 127 kts 201°
2026-04-30 14:35 36.73582 -6.06431 233 ft 163 kts 202°
2026-04-30 14:36 36.72549 -6.06916 999 ft 159 kts 204°
2026-04-30 14:36 36.71525 -6.07399 1686 ft 154 kts 204°
2026-04-30 14:36 36.70519 -6.07876 2231 ft 154 kts 205°
2026-04-30 14:36 36.69511 -6.08374 2746 ft 157 kts 203°
2026-04-30 14:37 36.68497 -6.08890 3260 ft 159 kts 203°
2026-04-30 14:37 36.67422 -6.09447 3567 ft 176 kts 202°
2026-04-30 14:37 36.66243 -6.10065 3912 ft 190 kts 203°
2026-04-30 14:37 36.64992 -6.10731 4277 ft 207 kts 203°
2026-04-30 14:38 36.63585 -6.11484 4544 ft 233 kts 202°
2026-04-30 14:38 36.62028 -6.12306 5016 ft 252 kts 202°
2026-04-30 14:38 36.60363 -6.13159 5727 ft 260 kts 202°
2026-04-30 14:38 36.58689 -6.13997 6682 ft 259 kts 201°
2026-04-30 14:39 36.56987 -6.14807 7465 ft 263 kts 197°
2026-04-30 14:39 36.55150 -6.14901 8107 ft 275 kts 165°
2026-04-30 14:39 36.53533 -6.13608 8784 ft 284 kts 130°
2026-04-30 14:40 36.52874 -6.08769 10183 ft 305 kts 76°
2026-04-30 14:40 36.53363 -6.06259 11023 ft 302 kts 82°
2026-04-30 14:40 36.53521 -6.03573 11302 ft 322 kts 92°
2026-04-30 14:40 36.53466 -6.00687 11489 ft 345 kts 92°
2026-04-30 14:41 36.53543 -5.97642 11958 ft 357 kts 86°
2026-04-30 14:41 36.53922 -5.94571 12634 ft 362 kts 79°
2026-04-30 14:41 36.54611 -5.91530 13325 ft 367 kts 73°
2026-04-30 14:41 36.55562 -5.88561 14004 ft 371 kts 67°
2026-04-30 14:42 36.56736 -5.85667 14628 ft 376 kts 62°
2026-04-30 14:42 36.58097 -5.82914 15216 ft 380 kts 57°
2026-04-30 14:42 36.59687 -5.80245 15812 ft 384 kts 51°
2026-04-30 14:42 36.61482 -5.77757 16407 ft 388 kts 46°
2026-04-30 14:43 36.63477 -5.75471 16998 ft 392 kts 40°
2026-04-30 14:43 36.65663 -5.73407 17584 ft 395 kts 34°
2026-04-30 14:43 36.67974 -5.71522 18164 ft 399 kts 31°
2026-04-30 14:43 36.70465 -5.69966 18650 ft 403 kts 21°
2026-04-30 14:44 36.73164 -5.68964 19117 ft 407 kts 10°
2026-04-30 14:44 36.75976 -5.68468 19593 ft 410 kts
2026-04-30 14:44 36.78791 -5.68029 20101 ft 413 kts
2026-04-30 14:44 36.81663 -5.67583 20609 ft 417 kts
2026-04-30 14:45 36.84559 -5.67131 21114 ft 420 kts
2026-04-30 14:45 36.87470 -5.66674 21612 ft 423 kts
2026-04-30 14:45 36.90401 -5.66212 22103 ft 426 kts
2026-04-30 14:45 36.93356 -5.65743 22572 ft 430 kts
2026-04-30 14:46 36.96341 -5.65269 23035 ft 433 kts
2026-04-30 14:46 36.99344 -5.64791 23485 ft 436 kts
2026-04-30 14:46 37.02326 -5.64319 23856 ft 439 kts
2026-04-30 14:46 37.04391 -5.63992 24111 ft 441 kts
2026-04-30 14:47 37.08436 -5.63348 24598 ft 444 kts
2026-04-30 14:47 37.11515 -5.62854 24959 ft 447 kts
2026-04-30 14:47 37.14613 -5.62356 25308 ft 449 kts
2026-04-30 14:47 37.17710 -5.61553 25640 ft 454 kts 15°
2026-04-30 14:48 37.20677 -5.60157 25966 ft 458 kts 22°
2026-04-30 14:48 37.23597 -5.58528 26295 ft 461 kts 22°
2026-04-30 14:48 37.26500 -5.56909 26615 ft 463 kts 22°
2026-04-30 14:48 37.29461 -5.55257 26913 ft 465 kts 22°
2026-04-30 14:49 37.32426 -5.53609 27226 ft 468 kts 22°
2026-04-30 14:49 37.35422 -5.51946 27546 ft 470 kts 22°
2026-04-30 14:49 37.38429 -5.50276 27827 ft 473 kts 22°
2026-04-30 14:49 37.41449 -5.48594 28122 ft 475 kts 22°
2026-04-30 14:50 37.47489 -5.45219 28683 ft 479 kts 22°
2026-04-30 14:50 37.50539 -5.43510 28962 ft 481 kts 22°
2026-04-30 14:51 37.55653 -5.40647 29398 ft 485 kts 22°
2026-04-30 14:51 37.58741 -5.38916 29650 ft 486 kts 22°
2026-04-30 14:51 37.64954 -5.35430 30119 ft 490 kts 23°
2026-04-30 14:52 37.68083 -5.33673 30311 ft 492 kts 23°
2026-04-30 14:52 37.74338 -5.30148 30842 ft 491 kts 23°
2026-04-30 14:52 37.77458 -5.28391 31133 ft 490 kts 23°
2026-04-30 14:53 37.83642 -5.24903 31687 ft 489 kts 23°
2026-04-30 14:53 37.86745 -5.23146 32005 ft 487 kts 23°
2026-04-30 14:54 37.92931 -5.19640 32591 ft 485 kts 23°
2026-04-30 14:54 37.99064 -5.16167 33142 ft 484 kts 23°
2026-04-30 14:55 38.05208 -5.12679 33691 ft 484 kts 23°
2026-04-30 14:55 38.08281 -5.10934 33987 ft 483 kts 24°
2026-04-30 14:55 38.14495 -5.07741 34490 ft 480 kts 14°
2026-04-30 14:56 38.21082 -5.06703 34915 ft 475 kts 355°
2026-04-30 14:56 38.27618 -5.07396 35322 ft 474 kts 353°
2026-04-30 14:57 38.30903 -5.07763 35525 ft 474 kts 353°
2026-04-30 14:57 38.37485 -5.08486 35899 ft 473 kts 353°
2026-04-30 14:58 38.44046 -5.09217 36072 ft 473 kts 353°
2026-04-30 14:58 38.53902 -5.10312 36068 ft 473 kts 353°
2026-04-30 15:00 38.70262 -5.11950 36077 ft 472 kts 353°
2026-04-30 15:01 38.83355 -5.13287 36077 ft 473 kts 354°
2026-04-30 15:01 38.93210 -5.14285 36077 ft 473 kts 355°
2026-04-30 15:02 38.99733 -5.13567 36075 ft 474 kts 14°
2026-04-30 15:03 39.08540 -5.07933 36069 ft 473 kts 33°
2026-04-30 15:03 39.14084 -5.03332 36066 ft 474 kts 33°
2026-04-30 15:04 39.27986 -4.91827 36056 ft 474 kts 33°
2026-04-30 15:06 39.41833 -4.80282 36067 ft 475 kts 33°
2026-04-30 15:07 39.52948 -4.70969 36072 ft 475 kts 33°
2026-04-30 15:08 39.64010 -4.61661 36072 ft 475 kts 33°
2026-04-30 15:09 39.77874 -4.49962 36065 ft 476 kts 33°
2026-04-30 15:10 39.88974 -4.40540 36069 ft 476 kts 33°
2026-04-30 15:11 40.06313 -4.28050 36074 ft 476 kts 25°
2026-04-30 15:13 40.21341 -4.18858 36082 ft 476 kts 25°
2026-04-30 15:14 40.42349 -4.05946 36105 ft 476 kts 24°
2026-04-30 15:17 40.69322 -3.89237 36118 ft 476 kts 24°
2026-04-30 15:19 40.93212 -3.74304 36104 ft 475 kts 24°